Theta_e
313 313 313 312 312 312 312 312 312 311 309 309 307 307 306 306 306 306 306 306 307 308 306 307 309 309 309 309 309 310 311 311 313 313 318 323 314 313 311 308 320 322 322 328 330 334 336 336 339 343 349 350 350 352 352 352 354 361 364 363 361 362 368 373 373 370 367 366 364 362 362 363 363 361 360 361 360 359 360 357 352 350 348 347 349 349 349 350
313 313 313 312 312 312 312 312 311 311 309 307 306 306 306 307 306 306 306 306 307 308 306 308 310 310 310 310 310 310 312 313 315 319 325 321 317 313 308 313 321 323 324 327 329 330 334 338 337 339 348 350 350 352 354 354 354 359 362 363 363 368 372 370 368 367 367 367 363 363 363 363 362 360 361 363 361 359 360 356 352 351 348 347 348 348 349 351
313 312 312 311 311 312 312 312 311 310 309 307 305 304 305 306 306 306 306 307 307 308 307 308 311 310 310 310 310 311 313 316 326 336 331 318 315 310 311 321 325 323 323 324 325 323 326 333 334 338 347 348 350 352 355 356 356 358 360 365 367 368 369 366 368 366 366 366 362 363 364 364 363 361 363 363 361 360 359 356 353 352 350 347 346 347 350 352
312 312 312 311 311 311 311 311 311 309 307 305 304 304 305 306 307 307 307 307 307 309 307 308 311 310 311 311 310 312 315 324 337 335 327 315 312 310 317 328 326 323 323 322 322 320 322 330 334 338 343 345 345 347 351 354 357 358 359 364 365 364 366 367 368 366 365 364 362 364 364 365 362 362 364 362 361 363 359 354 353 351 349 347 346 348 350 352
311 311 312 311 310 311 311 311 310 308 306 304 304 304 305 306 307 307 307 307 307 309 308 308 311 311 312 311 311 314 319 332 333 329 325 313 312 314 321 329 326 324 324 322 321 322 325 332 336 337 342 345 343 344 347 347 350 355 357 359 359 360 366 369 366 364 363 362 363 363 364 364 362 363 363 360 362 365 360 353 350 348 347 346 346 349 351 351
311 310 311 310 310 311 310 310 308 306 306 304 304 304 305 306 308 308 307 307 308 309 308 308 310 312 312 310 313 317 324 330 326 327 325 314 316 319 322 328 326 324 324 321 322 325 330 334 338 339 341 343 343 344 346 343 344 353 354 353 355 356 363 368 363 364 364 362 363 363 363 362 362 365 362 360 366 367 363 355 348 347 346 346 348 349 351 351
311 310 311 310 310 310 309 309 307 306 306 305 305 305 305 307 308 308 308 308 308 308 309 308 309 312 312 311 316 320 326 331 325 325 325 317 318 319 321 325 322 321 321 321 320 322 330 336 340 341 340 342 344 343 345 344 343 351 353 350 353 355 362 366 361 365 366 363 362 361 362 363 364 366 361 362 367 366 365 357 347 347 346 346 349 349 350 351
311 311 311 311 311 310 309 309 308 308 308 307 307 306 306 308 308 309 308 308 308 308 309 308 309 311 312 312 317 323 328 332 325 324 324 318 319 319 320 321 320 320 319 320 320 320 327 336 340 340 340 343 343 341 342 344 345 348 350 348 347 353 362 363 362 365 365 364 362 361 363 364 365 364 361 364 366 363 363 355 347 347 346 347 349 349 350 350
311 311 311 311 311 310 310 310 310 309 309 308 308 307 307 308 309 309 308 308 308 309 309 308 309 311 313 314 318 324 327 327 323 324 324 320 320 321 322 320 320 322 319 317 318 320 325 331 336 338 341 340 337 338 338 342 348 347 346 346 343 351 363 362 363 365 363 362 360 362 365 364 362 360 362 364 363 362 361 354 349 347 346 348 349 349 350 350
311 311 311 311 310 310 311 311 310 310 310 309 309 308 308 309 310 310 309 309 309 310 309 309 310 311 314 317 321 326 323 321 323 324 324 322 321 322 323 321 319 320 319 316 316 320 324 328 331 333 335 336 336 337 336 341 344 340 337 339 338 347 361 361 363 364 362 362 361 363 365 362 359 361 368 366 360 361 361 356 349 348 347 348 349 349 350 350
310 311 311 310 310 311 310 311 311 310 310 310 309 308 309 310 311 311 310 310 309 310 309 309 310 313 315 318 324 328 322 319 323 325 325 324 322 321 323 322 320 319 319 317 315 318 324 326 327 330 333 334 336 334 335 337 335 335 332 333 343 352 360 360 363 364 362 363 361 360 360 362 359 364 371 365 360 360 361 357 349 349 349 347 349 349 349 350
311 310 311 310 311 311 311 311 311 310 311 310 309 309 311 312 312 312 311 310 310 310 309 310 312 316 318 321 325 326 322 322 323 325 326 324 323 323 323 323 322 320 320 319 316 317 322 326 323 328 333 332 333 334 336 332 331 336 329 334 354 360 360 362 364 362 361 362 360 358 360 364 363 364 367 361 360 361 360 358 350 349 348 347 348 348 349 349
311 311 311 311 311 310 311 311 311 311 311 310 309 310 313 313 313 313 312 311 311 310 309 311 314 316 321 328 328 321 321 325 324 325 327 325 324 325 324 324 324 322 321 320 319 317 319 323 321 325 329 328 330 331 332 331 330 332 330 348 366 363 361 362 363 361 360 360 359 356 357 365 367 363 362 359 358 360 360 358 351 349 349 347 348 347 348 349
311 311 311 311 311 310 311 311 311 311 311 310 310 313 314 315 314 314 313 312 312 310 309 312 315 317 324 332 325 321 324 326 325 325 327 326 324 326 326 326 326 325 322 320 320 319 318 319 319 322 324 325 328 328 329 331 330 330 331 349 364 359 359 363 361 362 363 360 359 356 356 367 372 364 362 359 358 359 358 357 352 350 349 346 347 347 347 348
310 311 311 311 311 310 311 311 311 312 311 310 311 314 315 316 317 314 313 313 312 310 310 314 317 321 332 336 325 322 324 325 325 323 325 326 325 328 328 326 328 326 322 321 319 318 318 317 318 322 324 326 329 329 334 335 335 336 327 333 351 354 357 366 361 361 363 361 361 356 357 369 371 364 362 359 358 358 356 357 353 349 349 347 346 346 346 347
310 310 311 311 311 311 311 311 312 312 311 310 313 316 316 318 318 315 314 313 311 311 313 319 319 322 334 336 325 322 323 323 322 320 323 325 325 326 328 327 327 326 323 322 319 318 318 317 320 324 325 329 334 335 338 337 338 342 331 329 343 350 356 366 362 359 361 362 363 360 362 370 367 362 361 359 358 358 357 357 353 349 349 347 345 346 346 346
310 310 310 310 311 311 311 311 312 312 310 311 315 317 317 317 316 313 313 312 312 313 317 322 321 320 328 328 323 322 323 322 319 319 321 324 324 323 326 326 323 322 321 320 319 319 319 320 327 332 331 330 335 338 338 335 335 338 336 331 334 342 355 364 363 360 359 362 366 364 366 369 363 360 361 359 358 358 357 356 353 349 349 347 345 345 345 346
310 310 310 310 311 311 311 312 312 311 310 312 315 317 317 315 315 314 314 313 314 317 320 323 322 322 323 321 320 320 321 319 317 318 317 324 326 323 324 322 319 318 319 321 321 320 322 327 332 338 338 331 331 337 338 338 334 329 331 328 325 329 342 357 366 364 359 362 366 364 367 366 361 361 361 358 357 357 356 356 353 349 348 347 345 345 345 345
310 310 310 311 311 311 312 312 312 311 311 313 315 317 317 317 317 317 317 316 318 323 326 327 328 325 321 323 322 320 319 316 314 315 315 321 323 321 321 320 320 321 323 327 326 324 328 334 336 337 339 337 334 335 338 341 335 328 328 326 325 323 326 344 360 361 360 362 365 365 365 364 361 362 361 358 357 357 356 355 355 351 348 347 346 345 345 345
310 310 310 311 311 312 312 312 312 311 312 314 314 315 316 317 319 318 318 319 322 323 325 328 332 327 321 322 322 318 316 314 313 314 314 317 317 316 318 321 326 328 329 333 330 329 333 337 341 339 340 343 339 336 336 336 332 329 329 327 327 325 324 331 338 350 361 362 362 364 363 363 362 362 361 358 357 357 357 356 356 353 349 348 346 345 345 345
310 310 311 311 311 312 312 312 311 311 313 314 313 316 316 314 316 316 314 317 320 317 319 325 326 324 319 318 318 316 314 314 312 313 314 315 315 314 317 324 330 330 330 333 332 331 335 339 341 341 343 342 339 335 331 330 329 329 329 328 326 324 327 329 327 342 358 360 362 362 362 364 363 362 361 358 358 358 357 356 355 354 350 349 347 346 345 345
310 311 311 311 312 312 312 312 311 312 314 315 314 316 316 314 314 313 312 315 316 313 315 318 316 316 316 315 315 314 313 313 312 313 315 315 316 315 319 327 331 331 329 331 335 335 336 339 339 340 340 335 334 332 328 329 329 329 328 326 325 327 329 328 330 346 356 359 364 363 361 363 363 363 361 359 359 358 356 355 354 354 352 350 348 347 346 345
311 311 311 312 312 312 312 312 311 313 314 315 315 314 314 315 315 312 311 313 314 313 314 315 314 315 317 314 313 314 313 313 313 314 316 316 315 316 323 328 329 330 330 331 337 338 337 340 340 339 335 333 334 331 329 330 329 330 329 325 326 328 327 324 330 352 360 356 361 363 361 363 365 365 362 359 358 357 356 355 355 355 353 351 349 348 347 346
311 312 312 312 312 313 313 311 311 313 314 315 315 315 315 316 315 313 313 314 314 314 314 314 314 316 318 314 311 313 314 313 314 315 318 318 317 317 323 328 329 330 331 334 337 337 338 339 335 334 333 334 335 333 330 330 330 332 330 327 327 327 328 324 329 355 364 355 358 363 358 359 365 366 365 361 358 358 356 355 356 356 354 352 352 351 350 348
312 312 312 312 313 313 312 311 311 313 314 315 315 315 315 315 315 313 316 317 314 314 314 311 312 314 313 311 310 311 313 313 314 314 317 318 318 319 319 322 327 330 331 333 335 335 337 334 330 331 333 332 332 335 333 330 330 330 330 330 329 329 331 325 330 350 353 348 354 358 351 355 363 363 364 363 361 360 358 357 356 355 355 354 353 352 351 350
313 313 313 312 313 313 312 312 311 312 315 315 315 315 315 316 315 313 319 321 315 315 316 311 312 313 311 310 311 312 313 313 312 313 317 318 317 318 317 318 322 327 330 331 333 335 334 329 330 332 332 331 331 331 332 331 327 327 332 332 329 332 330 325 328 334 336 341 351 351 348 352 357 357 362 363 362 363 359 358 357 354 355 354 353 352 350 350
313 313 313 313 314 313 314 313 310 313 316 315 315 315 315 315 314 312 319 323 317 315 315 311 311 311 311 310 310 313 314 314 313 313 315 317 316 316 317 317 318 319 323 329 330 331 328 325 329 332 330 330 330 328 330 331 327 328 333 331 331 334 330 327 326 322 326 334 343 351 350 346 349 353 359 362 362 364 362 359 358 355 355 354 353 352 350 349
314 314 313 314 314 313 313 311 311 315 316 314 315 315 316 315 314 316 322 322 317 314 312 311 310 310 310 310 311 314 312 313 315 313 312 314 314 316 318 318 320 318 317 325 330 327 321 320 325 329 328 328 330 331 331 328 328 331 331 329 331 331 328 328 322 320 324 322 328 348 350 342 349 356 358 361 362 364 364 361 359 357 355 354 353 351 350 349
314 314 314 315 314 313 312 310 311 315 314 313 315 316 315 314 315 321 324 320 315 312 311 311 311 311 311 312 312 313 312 312 315 313 313 314 312 314 317 315 318 319 313 319 327 322 316 318 320 321 323 326 329 329 328 327 329 329 327 326 327 327 328 327 322 320 322 317 320 339 345 341 349 356 356 359 360 360 363 361 358 357 355 355 353 352 350 349
315 315 315 316 314 313 312 311 312 313 314 315 316 316 314 317 325 326 321 317 313 311 311 311 311 311 312 313 312 313 313 313 314 314 314 313 312 313 314 313 315 319 318 319 320 317 316 320 320 318 317 319 321 321 322 326 327 324 325 325 324 330 332 335 337 325 317 320 322 334 344 340 341 351 356 358 359 359 360 359 358 357 355 355 353 352 351 349
316 316 316 316 314 313 312 313 314 314 316 316 316 316 315 321 333 331 319 315 313 311 312 312 313 313 312 313 313 312 313 313 313 316 315 312 312 312 313 315 316 320 323 320 316 316 318 319 318 318 318 316 316 318 317 318 320 321 327 324 321 329 330 330 336 323 313 323 328 334 345 337 335 346 350 350 353 353 357 360 358 356 355 355 354 351 351 350
317 317 318 317 315 314 314 315 316 316 318 317 317 321 323 323 326 324 318 315 312 312 312 312 313 313 313 313 313 313 313 313 313 314 314 312 311 311 312 313 313 316 318 315 316 317 316 316 315 317 320 316 315 320 318 316 318 321 328 326 320 325 324 320 325 321 318 324 324 330 343 340 338 342 339 340 340 339 348 354 355 356 354 354 354 352 351 350
318 318 319 318 316 316 316 317 316 317 319 317 318 325 329 326 321 319 318 314 311 312 312 313 312 312 314 313 312 312 312 312 312 312 313 312 311 312 311 310 310 315 318 316 317 317 314 315 316 316 319 315 314 319 318 316 318 318 324 324 320 323 322 320 325 323 320 322 317 323 339 340 335 334 336 342 339 336 341 345 348 353 354 353 353 352 352 350
319 319 319 319 318 317 317 317 317 319 318 315 321 327 324 321 320 321 319 314 312 313 312 312 312 312 314 313 312 313 314 313 311 311 312 312 313 313 312 311 310 312 318 319 317 317 316 316 315 314 315 314 315 316 313 314 315 316 322 322 322 326 325 324 327 323 319 320 317 321 336 337 328 329 336 340 341 342 343 342 344 347 351 354 352 351 352 350
320 319 319 318 318 317 318 318 318 319 316 313 319 324 319 316 318 318 316 315 314 314 312 311 313 315 315 313 312 312 314 314 311 311 312 311 312 312 311 311 310 311 315 318 316 318 319 316 312 314 314 312 314 315 313 315 315 316 320 321 320 323 325 324 327 329 323 320 320 321 329 332 326 327 335 338 342 344 342 342 344 343 347 353 353 352 351 351
320 319 318 317 317 317 317 319 318 318 317 315 317 318 315 314 313 313 314 314 312 312 314 314 313 314 315 314 313 311 313 314 312 314 313 311 311 311 310 311 311 311 314 316 316 317 320 317 312 315 317 313 313 314 313 314 316 320 321 320 318 319 321 320 322 330 326 318 320 320 320 328 327 323 331 341 345 344 342 341 342 342 345 349 353 354 351 351
320 319 317 316 316 315 316 318 317 316 317 318 319 316 314 312 310 311 314 314 310 311 317 317 312 312 314 314 312 312 314 313 313 314 313 312 313 311 310 312 311 310 311 314 315 313 316 318 314 313 315 315 313 313 314 312 314 321 320 317 317 316 321 322 320 326 325 318 319 320 324 333 332 325 333 345 346 343 342 341 340 341 343 346 349 351 351 352
320 319 318 317 315 315 317 317 315 317 318 320 324 320 313 311 311 311 312 311 310 312 315 315 312 310 313 315 312 310 314 314 314 315 314 313 313 311 310 312 313 311 310 313 315 314 314 316 316 314 313 315 314 313 316 314 312 317 317 315 318 320 323 324 321 320 322 322 319 320 330 337 331 328 339 346 345 343 342 341 341 341 341 343 346 347 350 351
320 323 320 315 315 314 317 316 315 318 318 318 324 322 313 312 312 311 311 311 310 312 313 312 312 311 311 313 312 310 313 313 312 314 315 313 313 312 311 311 312 312 312 313 315 315 316 315 315 316 314 312 314 314 315 315 314 314 313 313 316 320 322 322 322 320 322 327 323 322 333 337 330 329 339 345 344 341 341 341 341 341 339 340 343 346 348 349
320 328 322 314 315 316 315 315 315 318 318 316 319 318 312 312 311 310 311 311 311 312 312 312 312 313 311 311 311 311 312 313 312 313 314 313 312 312 311 310 312 313 314 315 313 315 319 317 314 317 315 312 313 313 312 314 315 312 312 312 312 315 319 321 322 319 322 329 331 334 338 333 328 330 338 345 342 337 338 340 341 341 339 338 340 343 345 347
321 327 322 314 314 316 316 317 318 320 320 317 315 314 315 314 311 310 312 311 312 311 311 312 313 313 313 312 312 312 313 313 313 314 314 313 313 314 312 311 311 312 317 319 315 315 319 319 318 318 314 312 312 311 311 313 312 310 311 311 310 313 320 327 325 318 322 328 329 336 338 328 327 335 340 343 341 336 336 336 338 339 339 338 338 339 341 345
325 323 318 314 314 314 314 317 322 322 318 314 312 313 315 314 310 310 312 312 312 312 312 313 313 313 314 313 313 314 316 315 314 314 314 312 312 313 312 312 312 313 318 319 316 318 321 321 323 319 314 312 311 310 312 313 311 311 310 309 310 311 315 325 325 318 323 327 326 334 336 328 330 338 341 342 340 336 334 334 335 336 336 337 337 337 338 339
333 324 317 313 313 314 313 315 320 319 315 312 311 311 312 312 310 310 311 313 312 312 313 312 313 315 314 313 315 316 315 315 315 314 315 314 313 312 313 314 314 315 318 317 315 318 320 317 319 323 323 321 316 312 313 312 311 313 311 309 310 309 310 315 318 321 325 326 327 333 332 326 329 337 340 340 339 337 335 334 334 334 334 335 335 335 336 336
334 327 324 317 311 313 316 317 319 318 316 314 312 313 312 310 311 311 311 312 312 312 313 312 312 314 313 313 316 315 314 317 316 314 315 316 314 314 316 316 316 316 318 318 315 313 313 314 318 325 325 320 318 318 318 314 312 312 312 310 310 310 310 311 316 326 331 324 322 330 332 328 328 335 339 338 337 338 336 333 334 333 333 333 333 334 335 335
328 325 326 321 312 314 318 318 319 317 316 316 314 314 315 312 312 311 311 312 311 311 313 312 312 313 313 314 315 313 314 317 316 315 317 317 316 316 316 315 316 317 316 319 322 318 314 316 323 330 326 318 318 322 321 317 314 312 311 311 311 310 310 312 318 327 331 324 320 327 332 327 324 333 338 336 335 337 336 334 334 333 333 333 333 334 333 334
326 324 325 325 317 315 316 316 318 319 319 320 318 314 315 316 313 312 312 312 311 311 313 313 313 315 313 315 316 315 315 315 316 319 319 316 315 316 316 315 317 318 316 318 325 326 320 316 321 330 328 323 323 323 319 316 314 313 312 312 313 311 310 315 321 324 325 321 322 330 331 320 321 335 338 334 335 336 335 334 333 332 333 332 332 334 333 333
326 323 321 324 322 320 320 316 317 320 319 320 319 315 314 316 315 314 314 313 311 312 314 314 315 316 314 316 317 316 317 318 318 319 317 316 317 317 317 315 315 318 317 316 323 329 324 317 318 321 318 317 321 320 315 314 313 312 312 313 313 312 311 314 317 319 321 320 325 335 331 317 323 337 337 332 334 335 332 333 332 332 333 332 332 333 332 332
323 321 317 319 319 321 321 317 316 318 319 321 321 316 315 316 316 316 316 315 313 313 317 317 315 317 317 319 320 318 319 320 318 317 315 315 317 318 316 314 313 317 318 316 320 327 325 317 314 316 314 314 316 315 312 314 313 311 313 314 312 313 315 315 314 315 317 318 322 327 322 320 327 335 334 332 333 332 331 331 330 330 332 332 332 332 332 332
323 323 318 318 319 319 320 320 318 317 319 325 324 318 317 317 316 315 314 317 316 314 318 318 316 317 318 322 325 321 319 319 317 315 315 314 314 316 315 313 313 316 318 316 316 320 323 319 314 315 316 314 314 314 312 313 313 313 316 314 312 316 318 315 316 319 317 318 323 322 321 327 329 329 331 332 331 330 330 329 328 329 330 331 331 331 331 331
322 321 320 324 325 322 323 323 321 319 321 324 322 318 317 318 317 316 314 316 317 315 317 317 315 316 317 320 324 320 318 321 318 314 315 315 314 315 314 313 313 315 318 317 315 316 319 317 317 322 320 314 315 316 313 312 312 314 317 315 315 323 325 320 324 330 328 327 329 328 331 333 328 324 329 331 330 329 329 328 328 328 328 330 330 330 331 331
315 313 318 328 326 320 322 322 321 323 323 323 321 318 317 316 316 316 314 314 316 316 317 317 316 317 317 318 319 316 318 324 321 315 317 319 318 316 314 313 312 314 317 315 314 318 320 316 318 325 322 315 316 316 315 315 312 312 316 316 317 326 329 326 329 331 331 332 333 333 335 332 326 324 327 329 330 330 329 328 328 327 327 328 328 328 330 330
315 313 315 324 324 318 320 322 321 322 320 319 319 318 317 316 316 318 316 315 315 316 318 319 319 319 319 319 317 314 316 321 320 316 316 317 317 316 314 315 314 313 316 315 312 317 324 321 318 321 321 318 317 317 318 319 315 315 316 313 315 324 326 327 330 329 328 330 333 334 332 327 325 324 325 326 329 330 330 329 329 327 327 326 326 327 327 328
Wind_Speed
20 21 21 20 21 21 21 20 20 20 19 18 18 16 13 12 12 12 13 15 16 17 15 12 9 8 7 8 9 8 10 10 10 7 9 10 9 9 8 14 17 19 22 20 20 17 12 10 9 10 8 3 2 2 4 4 2 1 1 1 2 2 2 2 1 1 3 5 7 7 5 7 7 3 1 1 4 5 4 4 5 6 7 12 18 25 29 27
21 21 21 21 21 21 20 21 20 19 18 18 18 18 16 13 12 11 13 14 15 16 14 10 7 6 7 9 9 9 11 11 9 10 12 7 5 13 15 16 19 24 25 21 22 20 12 8 9 10 6 3 3 3 4 3 3 2 1 0 2 3 2 1 2 2 2 4 7 5 4 6 7 5 2 3 5 5 6 6 7 10 10 14 21 26 25 26
21 21 21 21 21 21 20 21 20 19 18 17 18 19 18 16 13 11 12 13 14 14 12 9 6 6 8 9 10 11 10 8 6 7 6 3 12 18 19 18 22 27 25 22 24 20 15 13 13 10 5 3 3 3 4 3 3 3 1 1 3 4 2 1 3 3 2 5 8 5 4 4 4 4 1 5 7 5 7 7 8 11 11 14 17 21 22 23
22 22 21 21 21 21 21 21 20 19 18 17 18 19 19 18 15 13 11 11 12 12 11 8 7 7 9 11 10 10 8 4 2 3 5 3 18 22 21 21 25 27 22 20 21 16 16 17 12 7 4 3 1 1 2 3 2 2 3 3 3 2 1 2 2 4 5 6 6 6 6 5 4 2 2 8 8 3 5 6 9 12 14 16 16 18 20 20
22 22 21 21 21 21 21 21 20 19 19 18 19 19 20 19 16 15 12 10 9 10 10 7 7 9 10 11 9 8 5 1 2 2 3 7 21 23 22 23 25 25 20 20 17 14 16 15 8 4 3 2 1 1 3 5 2 2 4 5 5 3 2 1 3 6 6 6 5 6 7 5 4 2 3 9 7 3 3 6 11 13 16 17 17 17 17 17
22 23 22 21 22 22 21 21 20 20 19 20 20 20 21 20 17 14 13 10 8 8 8 7 7 9 10 10 7 5 2 1 3 2 2 10 21 23 22 23 23 21 19 20 17 13 13 10 6 5 3 2 2 3 3 4 4 3 4 5 7 5 3 1 4 6 7 7 7 6 5 5 5 3 4 6 3 2 2 6 13 14 17 20 19 17 15 15
23 22 22 22 22 21 21 21 21 21 21 22 22 22 21 20 17 14 13 10 7 6 6 7 7 8 9 7 4 3 1 4 5 3 5 12 21 22 21 22 22 20 19 19 14 9 9 9 7 6 5 3 3 5 4 4 5 5 5 6 6 6 5 4 5 6 6 8 6 6 6 5 7 5 5 4 2 3 3 5 13 15 18 19 16 15 14 14
23 23 22 22 22 21 21 21 22 22 23 24 24 24 23 21 18 14 11 10 8 5 5 5 6 6 6 3 1 3 1 5 4 6 8 15 21 22 22 21 22 21 19 19 15 8 8 10 8 5 5 5 3 4 4 3 4 7 8 7 4 4 5 6 6 6 6 6 5 6 6 4 4 4 5 4 2 3 3 5 12 15 16 15 14 15 13 12
23 23 23 23 22 22 22 22 23 24 25 26 26 26 24 21 17 14 10 9 7 5 3 3 4 4 3 0 1 1 2 3 5 8 9 18 22 22 21 19 23 24 18 17 17 12 7 7 7 5 5 5 2 2 2 2 3 7 9 7 5 4 6 8 7 7 5 5 6 7 5 2 3 4 4 4 3 4 4 6 13 15 15 13 13 14 13 12
24 23 24 24 24 23 23 23 24 26 27 27 28 27 25 21 16 13 9 7 6 6 3 3 3 1 0 1 3 2 2 1 4 9 10 17 22 22 20 18 23 25 17 13 15 12 6 5 6 4 3 2 2 2 1 2 3 4 5 6 8 5 7 9 8 7 5 5 7 8 4 2 3 2 2 3 4 5 5 7 13 15 14 13 13 12 12 13
24 24 24 25 25 25 25 26 26 28 28 28 28 27 25 21 16 12 8 6 6 5 4 5 2 1 2 1 2 3 2 3 3 10 10 15 21 21 21 20 23 25 18 11 12 15 9 7 7 2 1 1 1 3 3 3 3 6 5 4 4 1 6 7 8 8 5 4 6 9 5 1 2 2 3 6 5 6 7 8 13 15 13 12 13 12 11 12
24 24 25 26 26 26 27 27 28 29 29 29 29 27 24 21 15 11 7 6 5 4 6 6 4 3 3 1 4 6 1 4 2 11 12 14 18 18 20 22 22 24 21 12 12 18 14 9 5 2 2 1 1 3 4 4 4 6 4 2 3 6 6 5 6 7 5 3 7 10 4 3 5 3 3 8 7 6 7 8 12 14 12 11 12 11 9 12
24 25 26 26 26 28 28 29 29 29 30 29 28 27 23 19 14 8 6 6 5 5 7 7 4 4 4 0 6 6 2 3 3 11 13 14 15 15 17 20 20 22 22 16 14 19 18 11 3 2 2 1 1 3 4 5 4 4 2 3 3 4 3 5 4 6 4 4 9 7 1 4 7 4 4 8 9 8 8 9 11 13 11 11 11 10 10 12
25 26 26 26 27 28 29 29 29 29 29 28 27 26 21 16 11 6 7 7 7 7 7 7 5 5 5 4 5 2 3 2 5 11 14 14 12 9 13 17 18 19 19 14 9 15 21 15 1 3 3 1 2 4 6 5 3 1 2 2 2 2 2 4 4 6 3 3 9 4 2 3 5 5 6 7 10 10 11 10 11 12 11 10 11 11 10 12
26 26 26 27 27 28 29 29 28 28 29 27 26 22 17 12 7 5 7 8 9 10 8 7 6 5 3 6 5 1 3 3 6 11 13 16 12 6 9 14 14 16 16 12 6 10 20 13 2 1 3 1 0 3 4 3 3 2 1 2 2 2 2 3 5 7 4 3 8 3 1 3 4 6 8 7 8 9 11 12 11 13 13 11 11 12 11 11
27 27 27 27 28 29 29 29 28 27 27 26 23 17 12 10 4 4 8 9 10 10 7 5 5 5 3 3 2 0 3 3 4 7 10 16 14 7 10 12 10 11 12 12 8 7 15 11 2 3 2 2 1 1 2 4 4 3 2 2 2 3 2 3 5 6 5 6 7 5 2 2 3 5 8 8 9 9 10 12 12 14 15 13 10 11 11 10
27 27 27 27 28 29 29 28 27 26 26 24 18 11 10 8 5 9 11 11 12 9 5 3 3 2 0 3 2 1 3 3 3 5 10 16 15 10 13 9 6 9 7 8 7 3 9 7 2 3 1 1 2 2 2 2 3 3 2 1 1 2 2 3 4 6 6 8 8 7 4 4 3 4 8 9 11 10 10 12 13 13 13 12 10 11 11 11
28 28 28 28 28 28 29 27 26 25 24 20 13 8 10 11 11 12 14 14 10 6 3 1 1 0 2 3 2 3 6 7 5 4 9 14 16 14 12 8 7 9 5 3 4 2 4 2 1 2 1 0 2 3 3 3 2 1 2 2 2 2 1 2 3 5 8 7 6 6 7 9 5 4 7 9 11 11 11 12 11 12 13 12 11 11 11 12
28 29 28 29 28 28 28 26 25 24 20 17 8 6 9 10 9 8 11 10 4 2 1 2 2 1 3 3 4 7 10 9 6 4 9 12 14 13 8 9 10 8 4 2 2 3 4 2 2 2 2 2 3 4 5 5 4 5 3 3 1 2 2 3 2 5 10 7 5 8 9 12 7 5 8 9 10 11 11 11 10 10 12 12 11 11 12 13
29 30 29 29 28 28 27 25 24 20 15 15 7 4 4 5 3 3 1 2 3 3 1 3 4 2 3 3 4 8 9 6 3 3 9 12 13 11 4 5 6 4 3 5 3 3 4 3 3 4 5 4 5 6 5 5 4 3 2 2 2 1 3 4 3 5 10 6 6 11 10 9 6 5 8 8 8 10 11 11 11 11 11 11 12 12 13 13
30 30 29 29 28 28 25 24 22 15 10 13 8 3 2 2 2 2 4 4 5 5 5 5 5 4 6 5 5 4 4 2 2 0 7 11 11 9 1 3 5 3 1 4 3 2 3 4 5 4 7 6 5 5 3 3 2 1 1 0 1 2 4 5 3 4 8 6 5 7 7 8 5 5 7 8 9 11 13 13 13 13 11 10 12 13 13 11
30 30 30 29 29 27 24 23 18 9 7 9 7 4 3 2 4 2 2 3 6 4 4 5 3 5 8 8 9 3 2 1 3 3 4 7 5 5 2 4 6 3 1 3 4 2 1 3 5 5 6 4 2 3 3 1 2 2 1 1 2 2 3 4 4 3 5 6 3 4 7 7 5 5 7 9 10 9 10 12 12 12 11 10 12 13 12 10
30 31 31 30 28 25 23 21 11 4 7 6 6 4 2 8 9 1 3 1 6 4 2 3 2 4 6 5 5 5 4 1 1 2 3 6 3 3 4 5 5 3 2 4 4 4 3 4 6 6 5 4 1 2 4 2 0 2 2 2 2 2 1 2 4 4 2 2 1 4 5 4 2 4 7 10 10 7 7 9 9 10 11 11 12 11 11 13
30 32 31 30 27 23 23 16 4 3 6 2 5 5 8 11 9 3 2 0 4 5 3 4 3 4 3 1 3 6 4 2 3 2 3 6 3 2 4 4 4 3 2 4 6 5 4 6 4 5 6 5 3 0 3 0 2 2 4 4 3 2 3 4 3 2 3 2 1 4 2 4 2 5 5 7 8 7 7 8 9 10 10 9 8 9 11 13
32 32 31 28 25 23 20 8 1 5 5 3 4 6 11 12 7 3 3 2 2 5 3 2 1 2 3 1 2 3 2 1 2 3 2 6 5 3 2 2 3 3 3 4 6 3 5 6 3 5 4 5 4 3 3 5 2 3 3 7 7 5 6 4 1 2 4 3 3 3 2 5 3 5 6 6 8 9 8 10 12 11 11 9 9 9 9 11
32 31 29 26 24 23 15 2 3 8 2 3 4 8 11 10 5 3 3 3 1 3 1 1 1 1 2 1 0 1 4 1 2 1 3 3 3 4 3 1 1 3 5 4 4 2 3 3 2 5 4 5 4 4 3 6 3 2 4 8 10 8 6 4 3 2 1 2 4 2 2 3 4 4 6 6 8 10 9 11 13 12 11 11 10 10 9 10
32 30 28 24 22 20 9 1 7 7 2 1 7 10 11 9 2 3 3 4 2 1 0 0 1 1 1 1 1 4 3 2 2 6 6 5 2 2 4 2 1 1 3 4 2 2 2 1 1 3 4 4 4 4 5 8 6 3 5 6 8 7 6 6 5 4 3 2 3 1 3 1 4 4 5 7 7 8 9 11 12 12 12 13 12 12 11 11
31 28 26 22 19 15 6 5 8 3 3 5 8 10 11 6 1 4 4 3 0 1 0 1 1 1 2 2 4 3 2 2 2 2 5 9 7 2 4 2 5 3 2 5 2 4 2 2 1 3 3 3 4 5 6 9 5 5 6 7 7 7 6 5 6 4 2 0 3 3 2 1 4 4 2 8 7 9 13 14 13 13 14 14 14 14 14 12
29 26 23 20 14 8 3 5 5 1 4 8 9 12 10 3 2 4 4 2 1 1 0 1 1 1 3 4 4 3 2 2 3 2 5 10 10 5 3 1 4 4 3 6 5 4 0 1 4 5 3 3 5 5 6 10 6 4 5 5 2 3 4 3 5 4 2 2 4 5 4 2 4 4 1 6 7 11 13 12 13 13 14 15 14 15 15 12
27 23 20 16 10 5 3 4 3 3 7 9 11 12 6 2 4 4 2 1 1 1 1 2 1 1 3 4 4 5 5 4 3 4 5 6 9 8 3 1 4 5 2 4 2 2 3 3 1 5 2 4 5 3 4 8 5 1 3 3 3 4 3 3 1 3 3 1 6 7 8 5 2 4 4 5 5 8 10 8 10 12 13 14 14 14 15 14
23 18 15 13 7 2 2 3 4 6 9 10 13 10 2 2 3 5 2 0 1 2 2 1 2 2 4 5 3 5 5 5 6 6 5 4 8 10 6 4 5 4 4 5 2 3 6 6 3 1 2 3 3 1 1 1 1 2 2 4 3 2 3 4 4 2 2 4 6 4 6 5 1 4 3 4 7 7 6 8 11 15 16 16 15 15 16 15
19 15 12 10 6 3 3 3 6 8 10 12 11 5 4 3 3 2 1 2 1 2 1 1 2 3 4 4 5 5 5 4 5 6 4 4 7 7 6 4 2 2 2 2 1 4 4 3 4 5 4 7 6 2 2 5 5 4 4 5 4 1 2 0 1 0 3 4 4 1 4 3 3 2 4 7 10 11 8 7 9 13 16 17 16 16 15 14
16 13 12 10 7 6 6 7 9 9 10 10 6 4 5 4 3 1 3 2 1 1 1 1 2 4 5 5 4 5 6 4 4 5 4 3 6 4 4 6 4 2 3 0 2 4 2 2 8 8 5 7 6 3 2 2 4 4 3 5 4 2 2 2 2 0 2 4 4 1 3 1 2 0 5 8 8 10 10 9 8 8 12 15 15 15 15 14
14 13 12 11 9 9 8 8 8 8 7 6 4 4 6 5 1 2 3 2 1 2 3 2 3 5 6 5 2 2 6 5 4 6 4 3 5 4 5 9 10 3 2 3 2 2 3 1 7 6 4 6 5 2 1 2 2 3 2 4 3 4 4 3 3 3 3 3 3 2 3 3 3 4 3 6 7 10 12 12 11 9 7 11 12 12 13 14
12 12 14 14 14 13 11 8 6 5 4 4 5 5 6 3 2 2 2 3 2 3 4 3 5 6 5 5 4 3 4 3 4 7 7 4 4 4 4 6 9 5 3 3 2 1 4 1 5 5 3 4 5 4 1 2 1 2 0 4 3 3 4 2 3 5 4 3 1 1 3 2 4 4 6 11 10 13 15 15 15 15 11 5 10 11 12 13
9 11 14 18 19 16 13 10 6 3 2 5 6 5 3 1 1 1 1 2 1 2 3 5 6 6 4 4 5 6 5 4 3 4 5 4 3 4 4 3 6 6 3 3 1 2 3 0 6 7 5 4 4 4 2 4 1 1 3 2 2 3 4 2 1 0 3 4 2 2 1 4 2 1 10 17 15 17 18 17 16 15 15 8 6 11 12 13
8 6 9 17 23 18 11 9 7 4 3 6 7 4 0 0 1 2 2 2 2 1 4 4 4 3 2 3 4 6 5 4 4 3 3 3 3 5 6 4 3 5 3 2 2 0 3 1 4 5 5 6 5 2 1 5 3 2 2 1 3 2 3 2 1 2 4 3 2 2 3 5 4 1 9 19 19 19 18 17 16 15 16 14 9 7 10 14
7 4 3 14 24 19 10 8 8 4 4 6 7 4 1 2 3 2 3 2 1 3 6 3 1 2 2 3 3 6 5 2 3 3 3 3 2 2 4 3 2 6 6 3 2 1 2 1 3 2 3 8 7 4 2 6 6 3 2 1 1 3 1 1 2 2 2 3 1 3 3 4 4 3 9 16 17 18 17 15 16 17 17 15 14 13 11 12
7 3 2 15 24 16 8 8 7 4 7 5 4 3 1 2 4 5 4 2 2 4 5 2 2 4 4 3 2 5 6 4 2 3 2 2 1 2 4 2 3 6 7 4 3 0 2 3 2 5 5 5 5 6 3 6 7 4 3 4 3 2 2 1 1 2 2 2 3 1 3 3 2 4 8 12 12 14 15 14 14 15 16 14 14 15 13 11
5 2 2 18 21 9 7 9 6 6 6 3 2 2 2 2 4 7 7 5 4 3 3 3 3 4 4 4 3 3 6 5 3 3 2 2 1 1 4 3 4 6 5 5 4 1 2 3 1 6 7 4 3 3 2 3 5 5 5 5 5 3 2 2 2 2 2 3 3 2 3 1 3 3 5 8 10 11 12 13 13 14 15 14 14 16 14 10
4 3 5 20 17 4 6 9 6 5 3 2 2 2 3 3 4 8 9 7 6 4 4 4 4 4 3 4 4 2 3 4 4 3 2 3 2 1 3 4 3 5 4 5 4 3 2 2 2 3 5 4 1 3 3 1 3 5 4 4 3 3 3 3 2 3 2 2 2 3 4 2 2 3 3 6 7 9 11 11 12 15 17 16 16 17 17 11
5 3 6 20 14 5 8 7 2 3 3 3 3 2 4 5 4 7 7 7 6 5 5 5 4 4 3 3 3 2 4 3 4 4 3 2 3 1 4 5 4 3 2 3 2 1 1 3 3 2 2 1 4 6 4 1 4 6 5 4 3 2 3 4 2 1 2 3 1 2 4 3 2 2 4 6 6 7 10 11 11 12 14 16 18 18 19 17
3 1 8 20 11 9 11 6 3 5 4 1 2 3 5 4 4 7 6 7 5 3 5 5 3 4 4 3 3 3 4 3 3 3 2 2 3 2 5 7 5 2 3 2 2 2 1 3 3 2 3 4 5 5 5 3 5 5 4 4 3 3 2 1 3 2 2 3 2 2 2 3 3 3 5 5 7 8 9 11 12 11 12 14 17 18 18 18
1 3 5 18 16 12 8 3 2 4 3 3 4 4 5 4 5 7 6 6 5 3 4 4 3 3 3 3 4 3 2 3 3 3 2 2 2 4 6 7 6 4 3 0 1 1 1 2 3 3 3 4 4 4 5 4 4 3 2 5 5 5 5 2 1 2 2 1 2 3 2 3 2 4 7 7 9 11 11 11 11 10 11 13 14 16 16 17
2 1 3 13 19 14 5 3 4 4 3 4 6 5 5 4 4 6 5 5 5 4 4 2 3 3 4 4 5 4 4 4 2 2 2 2 2 4 7 8 6 4 4 3 2 2 2 2 3 4 3 2 2 1 2 3 3 2 3 6 6 7 8 3 2 3 1 1 1 3 3 4 2 6 10 11 12 12 13 13 12 11 11 12 12 13 14 15
2 3 2 7 11 8 3 1 4 4 3 4 5 4 5 3 3 4 6 5 5 5 5 3 3 3 5 6 6 6 7 6 4 3 2 2 2 2 5 7 6 6 8 9 7 4 3 2 2 5 5 5 5 5 4 1 2 2 4 7 6 6 6 3 3 2 2 1 2 2 3 3 7 10 11 11 12 13 13 13 13 12 12 11 11 12 13 13
3 2 1 2 4 4 4 5 4 3 2 3 3 2 4 3 2 4 5 3 3 4 4 4 4 3 3 4 5 4 5 6 6 4 2 1 2 3 4 4 6 9 9 8 6 3 5 3 3 5 3 3 5 4 2 1 1 1 3 6 6 6 6 4 2 2 3 3 2 4 1 4 8 10 10 10 11 11 11 13 12 12 12 11 10 13 16 16
2 2 1 1 1 2 2 3 4 5 6 4 3 2 3 4 3 2 3 2 3 3 4 4 6 5 3 3 5 3 3 4 5 3 1 2 2 3 5 4 5 8 7 5 5 3 5 1 1 3 2 2 1 0 2 2 0 2 2 3 4 6 6 3 2 4 3 3 4 5 1 5 7 10 9 9 9 9 10 11 11 11 12 12 12 14 16 16
2 2 1 1 3 2 0 2 3 7 7 5 4 3 2 4 4 1 2 2 3 4 3 4 4 6 5 4 5 4 2 2 2 1 1 1 2 2 2 2 3 6 6 4 3 3 4 1 1 2 2 3 2 1 1 2 2 4 4 2 3 5 4 3 3 3 1 4 3 5 2 5 7 10 8 7 7 6 7 8 9 11 13 13 13 14 14 14
2 2 1 3 4 2 2 4 4 5 5 4 3 2 2 3 2 2 2 3 2 3 4 5 4 4 5 6 6 5 3 6 5 2 3 2 1 0 1 1 2 4 5 3 2 2 3 1 1 3 4 3 4 3 2 1 1 3 4 4 4 4 3 3 3 4 3 2 5 4 3 5 6 9 7 6 5 5 7 9 10 10 12 12 12 12 12 12
2 0 1 4 3 4 3 3 3 4 3 3 2 1 2 2 1 1 3 2 3 2 2 6 6 3 4 6 7 3 4 6 6 5 6 5 3 3 2 2 3 1 4 1 1 3 3 1 1 4 4 3 4 4 5 3 1 0 4 5 5 4 3 2 3 5 4 4 5 4 4 4 6 7 6 6 6 7 8 9 9 9 10 11 12 11 11 10
4 1 2 4 2 3 2 2 3 3 1 1 0 0 1 1 2 2 3 3 2 2 3 7 6 3 4 5 4 1 5 6 6 6 6 4 4 4 2 2 5 3 1 2 1 2 2 3 1 3 3 3 4 4 5 4 5 2 3 3 2 3 3 1 3 5 4 3 3 3 4 3 5 6 7 8 7 7 7 7 7 7 9 9 9 10 10 9
Wind_Direction
345 345 344 342 341 341 340 339 340 342 342 343 345 349 351 350 347 344 341 338 339 343 342 337 336 340 339 335 330 322 317 307 298 272 237 264 255 212 176 172 174 163 163 165 160 143 127 142 145 147 151 155 173 162 187 220 213 196 244 221 271 239 233 223 166 165 146 145 152 162 162 137 137 141 155 75 65 100 106 80 97 61 66 106 119 133 141 143
343 344 342 341 340 340 340 338 337 340 341 343 345 348 351 349 347 344 339 336 337 342 342 334 336 343 342 340 332 324 320 311 295 262 247 257 200 173 159 162 172 167 166 167 164 152 135 151 157 147 140 149 183 171 166 184 177 207 281 277 250 227 224 220 136 140 140 149 151 155 157 141 140 145 162 132 125 128 112 104 102 88 92 108 121 136 144 144
342 342 341 340 339 339 339 336 336 338 339 342 344 347 351 348 344 341 337 335 335 341 342 330 329 335 342 341 333 328 319 317 296 262 279 240 168 158 152 161 171 169 171 171 168 162 149 152 153 140 132 157 183 181 177 181 168 198 232 259 250 230 238 258 154 153 135 148 150 146 138 126 135 145 158 137 138 139 132 136 124 119 127 127 132 142 146 145
342 340 339 339 339 338 337 335 335 338 340 343 345 346 348 347 341 335 334 335 333 341 342 327 314 317 334 339 335 329 320 328 280 258 352 157 160 152 153 162 168 169 173 170 165 160 145 142 143 130 131 157 189 191 215 221 173 172 198 228 259 247 252 234 162 129 128 141 142 140 133 123 131 127 140 139 138 159 159 158 143 140 143 140 144 148 149 148
341 340 339 339 339 337 336 335 335 337 341 344 347 345 345 345 340 332 330 332 331 340 343 325 303 305 324 337 337 330 334 62 244 271 15 152 157 153 156 160 165 165 166 163 153 143 138 140 140 119 120 151 172 184 238 235 230 268 234 246 270 288 299 244 129 127 133 127 126 147 143 129 128 100 158 155 151 174 166 151 147 145 149 149 150 150 151 152
341 340 339 340 338 336 335 335 336 338 341 344 346 345 343 341 338 332 325 325 328 336 341 324 299 300 320 335 334 332 11 169 276 280 144 159 157 154 153 158 159 155 159 157 145 136 138 142 145 132 130 155 187 204 241 225 214 259 257 252 254 250 255 217 136 141 138 137 150 157 132 117 134 127 167 169 143 134 96 137 147 148 153 153 150 152 155 158
340 339 340 339 337 336 336 337 338 340 342 344 343 343 342 339 337 329 321 319 321 328 331 316 294 297 322 335 328 5 69 261 268 171 157 162 160 154 155 162 158 151 152 151 144 142 144 151 158 140 139 171 202 216 242 228 207 229 260 261 248 231 212 183 153 152 146 148 154 141 129 145 157 147 159 167 120 118 70 127 148 148 152 152 151 155 158 160
339 338 338 338 336 336 337 337 340 342 343 343 343 342 340 338 334 326 319 312 311 319 312 297 282 296 327 338 326 12 337 262 218 160 158 161 160 157 159 166 167 162 152 153 157 152 145 156 164 140 151 192 190 199 222 232 218 218 244 260 249 224 190 166 149 154 151 132 122 133 138 154 150 131 152 167 149 127 80 126 147 145 150 154 156 157 157 160
337 336 336 336 335 336 336 336 339 342 343 342 342 340 337 335 331 323 316 307 304 305 291 266 267 298 337 330 65 23 254 240 175 167 160 164 166 166 166 166 173 173 160 162 165 158 157 161 171 156 160 194 193 229 210 192 227 219 235 254 256 230 168 155 145 153 155 127 132 142 130 109 119 114 148 169 153 127 96 135 147 149 156 158 161 161 160 163
337 336 336 336 337 336 335 335 339 342 342 342 341 338 336 333 329 320 310 299 293 286 246 196 242 306 129 188 92 138 228 36 167 179 167 171 173 173 176 171 172 173 164 167 168 163 164 163 177 157 130 184 212 263 234 176 247 256 250 257 263 242 164 152 146 147 141 134 141 135 125 114 124 147 186 167 151 132 115 145 153 155 162 161 163 163 163 167
337 336 336 338 339 338 337 338 340 342 342 341 339 337 335 332 325 313 302 283 274 269 206 178 199 149 141 139 116 187 214 29 181 181 175 181 180 181 186 182 176 173 163 162 177 176 169 171 180 144 103 230 249 281 268 228 273 295 287 306 318 72 128 139 139 147 134 136 141 124 130 165 146 246 204 155 147 143 138 155 161 161 165 164 163 163 164 169
336 336 337 338 339 339 340 340 342 342 341 340 338 337 335 330 320 303 284 260 254 233 185 166 166 162 116 79 217 215 192 20 190 181 182 186 188 192 194 190 187 182 171 162 186 185 176 178 162 114 214 271 333 285 291 275 292 289 285 3 40 71 107 141 134 156 146 140 149 129 129 220 212 229 149 149 147 143 151 161 166 167 168 164 164 165 166 170
335 336 337 338 339 341 341 342 343 342 340 339 338 338 334 326 313 288 248 234 215 183 170 155 164 163 115 289 241 215 226 339 183 184 187 186 192 200 201 200 197 194 185 176 185 186 185 195 143 78 230 349 315 266 317 310 306 293 313 97 119 69 118 160 135 162 142 131 162 152 159 232 221 210 121 150 155 150 161 170 171 171 172 166 167 169 168 173
336 337 338 339 340 342 342 342 343 341 340 339 340 340 333 326 312 258 216 212 183 166 164 153 166 144 118 266 262 205 239 249 183 190 192 188 184 193 204 203 199 196 192 181 175 184 193 202 162 28 266 247 262 310 333 318 334 341 7 56 116 68 155 154 142 167 125 138 175 170 303 254 238 192 147 158 166 163 169 176 175 173 176 171 170 173 172 178
337 338 340 340 341 342 342 343 343 341 340 340 343 343 335 335 320 239 197 187 167 159 156 150 173 143 80 287 277 236 242 214 199 203 200 194 181 175 195 193 194 195 193 183 165 184 190 188 134 329 277 272 275 329 329 327 353 25 59 331 318 61 136 141 157 182 142 160 192 189 280 274 269 180 157 159 170 174 175 180 179 177 180 176 173 176 176 181
338 340 341 342 343 342 341 342 343 342 340 342 349 350 348 350 339 174 157 155 148 145 145 145 185 163 95 288 280 222 226 218 225 213 203 201 195 179 167 164 173 181 188 191 188 180 172 162 143 195 263 321 182 227 329 357 349 352 85 208 269 89 134 159 166 198 155 144 199 225 230 281 269 172 152 154 171 182 182 186 185 179 182 180 175 178 179 179
340 342 342 343 343 341 341 342 343 341 340 345 357 11 19 27 93 125 122 125 126 125 127 142 184 184 224 282 292 289 257 271 266 219 203 205 202 175 147 137 136 152 165 189 200 184 155 159 168 175 280 302 168 122 52 350 321 325 34 116 271 118 153 164 165 198 163 147 196 222 237 266 265 155 149 159 172 184 188 191 190 182 184 183 176 179 181 180
341 342 343 344 343 341 340 341 343 341 339 347 9 48 59 72 100 111 114 114 113 105 90 128 143 172 251 285 290 272 292 307 308 239 200 199 198 181 153 132 119 130 132 148 171 168 155 172 125 150 300 86 135 110 127 229 202 126 59 63 343 344 55 164 177 190 167 165 192 198 234 255 257 148 158 171 174 186 192 191 193 186 185 186 179 181 184 183
341 342 343 343 342 339 339 341 343 340 338 349 19 95 81 80 93 100 115 117 115 116 98 231 170 153 216 249 280 292 306 309 305 239 185 181 188 187 152 123 118 119 131 104 127 174 157 116 103 163 221 176 179 166 170 203 164 128 119 117 142 326 310 227 224 194 171 169 192 189 219 239 233 176 177 180 177 189 196 191 194 191 188 188 184 185 186 188
340 341 342 341 340 337 338 341 342 340 341 350 9 126 75 49 53 18 65 147 204 201 221 219 189 233 282 269 289 316 325 310 281 211 177 170 169 168 125 93 96 80 126 133 150 184 143 157 195 183 189 196 204 192 176 178 149 111 107 116 167 217 286 260 260 214 176 170 211 202 216 233 219 194 190 181 178 191 197 194 196 196 192 189 187 188 189 193
341 341 340 340 339 336 337 339 340 342 346 355 14 94 103 68 57 307 307 300 255 232 242 235 204 247 277 270 286 335 5 334 315 29 170 167 151 151 142 46 87 74 170 147 134 130 136 184 206 189 192 200 200 183 155 138 136 114 131 34 257 197 260 263 266 240 181 182 231 204 217 239 217 192 184 174 184 198 199 196 197 198 196 190 189 191 191 193
341 340 339 340 337 335 336 338 339 344 355 10 39 86 140 34 3 255 238 312 292 258 231 252 252 268 273 269 269 252 88 354 342 343 178 154 125 155 150 65 115 158 242 111 96 106 176 225 214 199 191 180 174 154 131 120 144 127 125 147 236 240 285 289 306 321 178 191 263 191 203 237 222 183 173 178 194 205 207 205 200 196 198 197 192 190 188 186
341 339 339 339 336 334 335 338 338 352 2 25 71 81 26 359 5 26 159 274 294 297 211 234 221 250 280 280 239 165 125 176 170 286 204 143 127 171 123 91 133 143 95 114 119 135 182 249 227 197 160 150 225 129 109 50 39 154 151 157 227 260 314 287 309 354 105 181 290 173 193 259 238 171 174 184 192 197 208 215 210 201 204 206 198 190 186 185
341 340 339 337 335 333 335 337 339 7 353 46 95 48 3 357 8 50 102 130 296 298 234 210 195 207 252 283 169 144 130 186 167 220 200 132 122 148 130 130 126 116 152 151 135 140 213 245 207 153 144 160 209 222 118 87 297 227 188 178 191 216 206 224 261 3 40 356 345 112 67 308 228 179 187 180 180 190 195 202 210 211 210 211 206 198 191 189
341 340 338 337 335 332 336 340 41 2 351 126 90 3 356 357 357 44 68 64 314 298 263 211 230 221 236 276 177 174 116 116 214 231 176 128 131 131 148 153 114 160 200 139 129 149 251 247 153 136 159 150 173 243 189 174 244 292 221 193 186 200 218 222 201 66 36 340 264 125 62 299 253 201 201 170 172 191 190 195 206 209 206 208 211 207 198 193
340 339 338 338 335 332 340 12 343 351 25 125 22 344 351 355 350 77 81 50 13 290 301 150 207 224 253 323 176 104 76 76 280 10 70 94 135 118 116 190 62 176 179 131 135 179 266 267 150 168 186 146 161 250 219 163 153 292 243 196 186 197 207 194 163 131 86 267 258 174 152 279 295 239 210 175 180 193 189 199 206 205 203 206 210 210 202 196
340 340 339 337 336 336 339 271 323 343 106 48 345 341 347 349 7 109 78 42 44 268 283 223 309 82 244 307 80 88 108 226 337 38 41 28 358 76 104 186 214 154 163 114 91 216 203 318 33 164 164 145 166 241 215 161 140 236 238 177 173 194 199 187 172 181 214 255 322 11 135 271 301 264 203 164 177 202 205 209 207 203 204 205 210 211 208 201
341 342 339 336 337 336 315 290 316 347 77 345 332 340 345 345 103 106 83 77 306 298 96 267 309 328 298 9 56 84 177 221 67 347 349 32 22 37 91 185 186 153 91 110 149 251 191 118 167 152 131 151 196 230 193 159 162 236 217 171 170 181 179 173 174 197 222 41 317 292 140 172 279 285 167 154 178 211 215 214 208 203 203 205 209 211 212 208
344 344 339 334 340 349 327 308 311 348 0 344 341 340 340 357 91 72 76 95 336 332 50 326 343 309 331 25 26 21 27 47 91 276 329 24 19 33 95 205 159 126 57 101 160 245 313 178 187 130 99 200 228 247 180 165 194 221 175 162 132 121 129 134 163 170 93 99 251 238 177 173 276 294 145 162 200 218 216 216 211 206 204 204 208 210 211 212
346 345 336 333 345 10 348 319 323 357 349 346 342 334 335 67 72 63 63 89 21 308 267 337 321 332 40 61 15 6 44 32 20 24 15 18 16 30 57 340 82 100 24 55 106 255 324 312 188 94 66 248 250 266 183 178 199 169 121 112 50 36 54 60 89 106 87 255 253 222 183 160 298 281 212 188 227 225 212 211 209 210 210 207 207 208 209 210
349 346 335 333 343 343 314 329 350 351 346 341 337 336 20 65 59 87 86 48 357 328 357 341 305 28 67 96 55 6 42 27 358 28 35 11 25 31 19 1 40 56 14 23 30 337 2 9 353 356 335 337 355 31 66 358 26 98 123 117 103 355 25 34 5 56 133 250 270 232 164 136 202 268 271 303 318 303 243 215 205 204 207 208 206 206 205 206
352 349 340 336 330 291 280 319 328 333 336 334 338 5 86 49 31 87 321 327 356 320 337 284 305 50 83 96 60 16 43 45 8 38 54 27 41 52 48 28 6 72 42 345 359 9 21 26 330 316 340 13 28 55 358 3 31 67 101 103 106 12 28 103 283 142 197 243 274 226 128 126 214 244 356 353 346 338 312 265 234 214 209 208 206 204 203 203
353 347 344 337 321 304 303 311 312 320 328 330 349 51 81 77 47 350 309 339 41 281 305 321 349 71 91 76 55 35 50 40 354 29 51 53 60 59 53 36 20 110 139 191 41 29 33 345 350 355 347 1 34 61 3 340 13 26 106 118 122 129 119 193 225 106 214 244 294 297 162 212 256 19 6 7 5 353 346 334 307 257 225 213 209 206 203 202
350 347 352 349 343 334 323 312 303 308 327 348 42 63 66 80 36 340 346 302 276 340 359 8 20 54 64 52 35 73 63 34 8 41 39 41 51 17 5 17 13 36 112 74 62 63 109 61 354 5 335 344 18 48 218 211 307 318 182 130 119 146 145 182 203 162 178 223 327 352 185 202 162 144 31 17 10 3 3 357 349 331 268 219 209 210 205 204
352 2 14 12 5 356 344 328 307 305 349 43 70 68 67 73 274 323 343 287 293 343 346 11 48 51 38 20 5 36 84 70 30 49 45 48 56 7 348 355 0 14 59 64 39 38 102 128 318 315 292 347 360 322 310 136 196 275 113 86 90 153 152 155 179 172 162 139 77 190 202 226 179 157 25 16 11 10 6 358 0 356 335 252 204 204 206 207
8 26 29 16 5 355 347 339 323 325 26 73 71 57 65 94 265 271 282 295 320 316 339 13 37 47 23 4 1 4 37 70 53 50 42 50 64 20 355 321 349 13 47 96 71 13 82 144 311 325 327 356 359 313 17 76 170 259 48 74 205 170 139 126 178 224 71 114 170 245 298 335 300 182 7 6 7 10 7 359 357 352 347 335 229 207 205 206
20 34 29 13 3 354 351 346 334 340 37 79 75 63 73 306 307 248 277 320 326 13 66 47 21 35 31 32 10 343 0 38 40 52 35 24 36 7 346 309 342 14 18 108 123 87 108 199 306 350 335 312 321 311 49 41 41 99 73 274 250 127 114 111 122 16 40 127 204 1 49 17 10 288 353 3 6 4 2 357 352 350 354 351 326 270 225 210
9 10 29 9 356 349 353 348 335 352 59 69 68 75 89 1 345 303 305 330 353 45 67 77 44 54 68 74 29 346 358 29 18 49 64 26 22 8 353 315 339 7 350 22 92 68 75 65 292 323 294 293 328 27 39 350 7 79 113 311 60 109 118 19 100 138 103 154 174 17 40 41 31 333 352 7 6 360 358 357 357 355 352 347 336 317 275 229
10 23 23 356 349 344 351 343 337 37 68 63 55 62 61 357 351 339 329 1 71 61 58 57 56 60 54 77 78 11 29 56 35 54 74 40 46 44 25 331 317 356 354 20 78 335 28 77 283 296 311 316 350 35 29 327 342 25 37 10 29 108 150 61 89 145 144 158 165 61 24 24 356 327 360 9 4 4 2 359 2 357 348 343 337 325 299 251
21 70 344 350 351 347 355 1 20 52 63 74 75 50 26 1 345 348 357 29 54 63 64 41 38 71 63 54 75 49 40 45 43 63 60 36 92 46 29 19 324 339 4 40 65 52 18 69 32 303 326 6 27 19 359 312 342 14 31 22 3 348 11 62 38 45 103 136 159 119 73 22 305 327 1 359 2 13 9 3 8 5 355 348 342 337 322 273
31 81 324 347 355 353 9 27 48 50 65 61 35 15 20 32 2 349 359 27 51 66 80 78 62 72 88 58 48 43 53 44 30 60 69 34 76 83 16 36 336 319 11 38 33 35 32 81 88 335 352 37 26 311 299 236 56 56 60 29 346 337 42 84 51 354 37 100 138 134 126 175 290 1 3 349 2 12 9 9 13 13 10 3 353 350 346 327
48 90 332 352 7 75 61 47 14 33 80 56 27 27 25 37 18 349 351 17 49 67 58 63 65 53 61 69 49 44 75 58 14 42 78 31 66 106 324 344 328 308 63 52 332 325 101 101 77 32 357 311 263 289 317 85 87 74 65 33 352 5 63 102 141 302 1 23 32 102 119 191 237 33 23 351 348 1 9 10 8 8 12 12 7 2 1 359
63 155 348 4 28 102 75 45 346 33 59 20 37 42 27 40 20 358 4 17 28 61 46 31 41 52 48 50 62 69 75 65 30 46 98 25 28 344 318 334 343 13 69 58 321 328 65 76 53 3 313 308 289 306 336 19 66 51 23 19 17 351 344 174 173 153 71 24 18 72 101 219 242 18 26 357 348 2 14 13 10 6 6 12 13 9 7 6
98 220 339 13 41 88 86 74 85 59 39 21 46 26 11 45 40 18 19 19 14 49 61 28 13 52 54 44 65 81 80 86 60 34 75 87 1 334 348 360 10 34 48 37 230 357 30 71 73 63 16 347 341 341 334 348 34 43 331 344 3 358 350 353 103 65 77 89 100 117 160 232 249 5 12 3 1 9 13 10 11 12 11 12 13 11 11 10
43 177 283 5 34 62 91 162 126 95 71 58 54 27 8 37 43 27 35 37 25 45 75 36 7 44 55 51 61 49 42 83 98 20 46 55 326 328 360 4 10 35 33 28 69 98 86 91 106 112 125 186 200 241 272 306 347 10 339 337 355 12 4 8 66 50 92 182 89 136 206 256 324 15 11 4 4 8 8 6 7 8 13 17 17 13 12 14
66 54 310 344 17 44 63 79 94 96 98 82 60 28 21 29 359 9 43 54 25 36 67 40 5 37 43 51 66 39 27 50 72 77 73 26 322 317 348 358 9 19 25 30 34 67 96 69 83 119 139 168 178 210 236 261 343 343 345 341 349 0 357 37 83 65 160 151 335 217 216 320 359 14 14 6 6 8 4 4 6 1 3 15 21 15 12 17
95 70 4 333 353 16 30 20 33 64 83 104 92 20 8 17 350 0 30 48 12 34 63 31 17 53 60 70 88 49 16 35 46 56 65 4 301 308 338 6 13 6 15 24 16 57 93 43 42 96 111 174 176 211 288 53 132 290 332 338 337 340 356 41 83 223 156 88 310 249 224 14 2 10 19 11 6 11 8 6 6 358 357 10 21 17 15 15
87 119 198 147 46 22 35 4 17 53 54 64 85 55 14 30 47 21 355 358 10 38 74 35 12 32 71 104 112 91 29 35 30 25 48 17 353 346 354 10 2 360 16 20 1 68 102 66 10 99 33 318 181 240 350 51 48 297 304 314 325 338 353 6 259 243 164 142 239 264 342 40 11 4 19 22 11 10 10 6 5 360 359 9 19 21 19 13
73 97 312 48 88 127 142 343 22 58 50 39 54 56 46 48 51 349 313 28 20 7 65 86 14 14 48 80 103 108 109 100 57 312 177 51 24 37 32 8 342 360 28 30 4 73 107 75 288 116 65 359 349 345 40 76 15 312 296 294 316 322 316 289 280 300 239 196 254 301 16 74 28 356 9 33 19 6 9 7 9 10 6 8 18 23 19 11
60 104 317 54 66 41 8 4 34 63 40 26 53 40 38 58 37 338 11 84 97 353 36 98 89 42 51 66 85 104 161 157 145 172 164 115 31 88 124 205 280 349 16 32 3 33 91 105 299 88 71 347 327 355 17 82 178 264 299 332 344 343 335 321 342 6 5 322 328 349 65 78 14 346 2 35 23 12 21 16 13 13 8 6 14 20 16 8
29 191 121 97 59 2 2 3 40 71 33 15 75 51 10 24 2 29 29 47 124 119 103 133 130 75 42 56 76 107 191 167 154 177 173 154 166 188 185 188 177 22 3 21 359 9 75 92 356 65 67 305 305 1 347 337 83 57 329 340 344 352 356 347 31 44 31 337 327 6 58 35 343 340 4 27 25 22 23 19 12 9 10 10 10 11 9 6
13 337 48 97 85 4 10 7 27 72 75 330 34 52 9 331 331 83 77 8 28 114 160 156 141 93 51 55 60 213 213 190 188 201 185 159 169 180 186 181 158 144 154 144 61 359 110 104 53 82 80 289 298 351 344 1 43 18 304 313 310 320 325 331 73 57 34 2 354 33 49 7 334 347 6 12 17 22 18 13 11 6 7 11 7 2 359 358